Location: Nakusp
(50.2330°N, 117.8000°W)
Time: 01:20:47
(UTC-07:00)

Cosmos 1939 Rocket - Visible Passes

Search period start: 21 April 2015 00:00
Search period end: 01 May 2015 00:00
Orbit: 534 x 594 km, 97.6° (Epoch: 19 April)

Date Brightness Start Highest point End Pass type
(mag) Time Alt. Az. Time Alt. Az. Time Alt. Az.
21 Apr 3.1 21:24:17 12° S 21:28:03 71° WSW 21:32:02 10° NNW visible
22 Apr 3.1 21:24:13 11° S 21:28:03 71° WSW 21:32:02 10° NNW visible
23 Apr 3.1 21:24:09 11° S 21:28:03 71° WSW 21:32:01 10° NNW visible
24 Apr 3.0 21:24:05 10° S 21:28:03 71° WSW 21:32:00 10° NNW visible
25 Apr 3.0 21:24:03 10° S 21:28:02 71° WSW 21:31:59 10° NNW visible
26 Apr 3.0 21:24:02 10° S 21:28:01 71° WSW 21:31:58 10° NNW visible
27 Apr 3.0 21:24:02 10° S 21:28:00 71° WSW 21:31:56 10° NNW visible
28 Apr 3.0 21:24:00 10° S 21:27:58 71° WSW 21:31:54 10° NNW visible
29 Apr 3.0 21:23:59 10° S 21:27:56 71° WSW 21:31:51 10° NNW visible
30 Apr 3.0 21:23:57 10° S 21:27:54 71° W 21:31:48 10° NNW visible
